DW0860 Weather Reports


time (UTC)temp
C
wind
direction
speed
KPH
gust
KPH
rain 1hr
cm
rain 24hr
cm
rain mn
cm
humidity
%
barometer
mb
20260903101554 21 0 0.0 0.0 0.00 0.00 0.00 97 1017.7
20260903100104 21 0 0.0 0.0 0.00 0.00 0.00 97 1017.6
20260903094603 21 0 0.0 0.0 0.00 0.00 0.00 96 1017.7
20260903093056 21 0 0.0 0.0 0.00 0.00 0.00 96 1017.6
20260903091556 21 0 0.0 0.0 0.00 0.00 0.00 96 1017.7
20260903084600 21 0 0.0 0.0 0.00 0.00 0.00 96 1017.5
20260903083106 21 0 0.0 0.0 0.00 0.00 0.00 96 1017.3
20260903081603 21 0 0.0 0.0 0.00 0.00 0.00 96 1017.3
20260903080105 21 0 0.0 0.0 0.00 0.00 0.00 96 1017.2
20260903074600 21 0 0.0 0.0 0.00 0.00 0.00 96 1017.2
20260903073101 21 0 0.0 0.0 0.00 0.00 0.00 96 1017.2
20260903071605 21 0 0.0 0.0 0.00 0.00 0.00 96 1017.1
20260903070100 21 0 0.0 0.0 0.00 0.00 0.00 95 1017.1
20260903064556 21 0 0.0 0.0 0.00 0.00 0.00 95 1017.2
20260903063055 22 0 0.0 0.0 0.00 0.00 0.00 95 1017.2
20260903061611 22 0 0.0 0.0 0.00 0.00 0.00 95 1017.1
20260903060104 22 0 0.0 0.0 0.00 0.00 0.00 95 1017.1
20260903054603 22 0 0.0 0.0 0.00 0.00 0.00 95 1017.2
20260903053107 22 0 0.0 0.0 0.00 0.00 0.00 95 1017.1
20260903051554 22 0 0.0 0.0 0.00 0.00 0.00 95 1017.1
20260903050055 22 0 0.0 0.0 0.00 0.00 0.00 94 1017.1
20260903044548 22 0 0.0 0.0 0.00 0.00 0.00 94 1017.1
20260903043059 22 0 0.0 0.0 0.00 0.00 0.00 94 1017.0
20260903041558 22 0 0.0 0.0 0.00 0.00 0.00 93 1017.1
20260903040100 23 0 0.0 0.0 0.00 0.00 0.00 93 1017.1
20260903034559 23 0 0.0 0.0 0.00 0.00 0.00 93 1017.2
20260903033055 23 0 0.0 0.0 0.00 0.00 0.00 93 1017.1
20260903031621 23 0 0.0 0.0 0.00 0.00 0.00 93 1017.2
20260903030113 23 0 0.0 0.0 0.00 0.00 0.00 92 1017.2
20260903024555 24 0 0.0 0.0 0.00 0.00 0.00 90 1017.2
20260903023101 24 0 0.0 0.0 0.00 0.00 0.00 91 1017.2
20260903021558 24 0 0.0 0.0 0.00 0.00 0.00 91 1017.2
20260903020100 24 0 0.0 0.0 0.00 0.00 0.00 91 1017.1
20260903014559 25 0 0.0 1.6 0.00 0.00 0.00 90 1016.9
20260903013057 25 219 0.0 1.6 0.00 0.00 0.00 88 1016.8
20260903011606 25 0 0.0 0.0 0.00 0.00 0.00 88 1016.7
20260903010108 26 0 0.0 0.0 0.00 0.00 0.00 86 1016.5
20260903004556 26 0 0.0 0.0 0.00 0.00 0.00 84 1016.6
20260903003058 27 0 0.0 0.0 0.00 0.00 0.00 81 1016.6
20260903001549 28 0 0.0 3.2 0.00 0.00 0.00 75 1016.7
20260903000057 31 0 0.0 1.6 0.00 0.00 0.00 68 1016.5
20260902234556 33 0 0.0 0.0 0.00 0.00 0.00 65 1016.7
20260902233052 33 0 0.0 0.0 0.00 0.00 0.00 63 1016.9
20260902231611 33 0 0.0 4.8 0.00 0.00 0.00 54 1017.0
20260902230056 33 218 0.0 4.8 0.00 0.00 0.00 53 1017.1
20260902224602 33 219 3.2 8.0 0.00 0.00 0.00 53 1017.2
20260902223058 34 205 1.6 6.4 0.00 0.00 0.00 52 1017.2
20260902221627 34 250 1.6 4.8 0.00 0.00 0.00 49 1017.3
20260902220104 35 228 1.6 4.8 0.00 0.00 0.00 52 1017.3
20260902214603 35 207 3.2 8.0 0.00 0.00 0.00 50 1017.6
20260902213103 35 165 3.2 9.7 0.00 0.00 0.00 51 1017.3
20260902211602 35 211 3.2 11.3 0.00 0.00 0.00 51 1017.2
20260902210106 35 0 1.6 6.4 0.00 0.00 0.00 48 1017.3
20260902204605 35 296 1.6 9.7 0.00 0.00 0.00 52 1017.3
20260902203107 35 293 1.6 9.7 0.00 0.00 0.00 49 1017.4
20260902201604 35 265 1.6 6.4 0.00 0.00 0.00 51 1017.6
20260902200108 34 290 0.0 8.0 0.00 0.00 0.00 53 1017.7
20260902194605 33 309 3.2 12.9 0.00 0.00 0.00 54 1017.8
20260902193106 34 315 4.8 12.9 0.00 0.00 0.00 55 1017.9
20260902191619 34 313 0.0 6.4 0.00 0.00 0.00 56 1018.2
20260902190057 34 0 1.6 12.9 0.00 0.00 0.00 53 1018.2
20260902184558 34 159 4.8 14.5 0.00 0.00 0.00 52 1018.5
20260902183123 34 265 4.8 12.9 0.00 0.00 0.00 50 1018.6
20260902181605 33 268 1.6 11.3 0.00 0.00 0.00 57 1018.8
20260902180105 34 267 3.2 11.3 0.00 0.00 0.00 55 1018.8
20260902174600 33 144 6.4 11.3 0.00 0.00 0.00 54 1018.9
20260902173108 33 271 1.6 12.9 0.00 0.00 0.00 56 1019.2
20260902171618 33 208 4.8 12.9 0.00 0.00 0.00 58 1019.5
20260902170058 33 249 1.6 9.7 0.00 0.00 0.00 58 1019.7
20260902164602 33 281 3.2 11.3 0.00 0.00 0.00 64 1019.9
20260902163104 32 304 1.6 9.7 0.00 0.00 0.00 63 1020.0
20260902161601 32 211 1.6 9.7 0.00 0.00 0.00 60 1020.1
20260902160105 32 206 3.2 9.7 0.00 0.00 0.00 66 1020.4
20260902154607 31 313 3.2 8.0 0.00 0.00 0.00 64 1020.2
20260902153100 32 265 0.0 6.4 0.00 0.00 0.00 67 1020.4
20260902151554 31 257 1.6 6.4 0.00 0.00 0.00 70 1020.3
20260902150055 30 220 1.6 4.8 0.00 0.00 0.00 68 1020.3
20260902144558 30 215 1.6 6.4 0.00 0.00 0.00 72 1020.2
20260902143055 29 215 0.0 4.8 0.00 0.00 0.00 74 1020.1
20260902141600 28 215 1.6 4.8 0.00 0.00 0.00 77 1020.2
20260902140105 28 215 1.6 6.4 0.00 0.00 0.00 79 1020.3
20260902134557 27 213 0.0 4.8 0.00 0.00 0.00 83 1020.1
20260902133056 27 242 1.6 4.8 0.00 0.00 0.00 85 1020.2
20260902131600 26 0 0.0 3.2 0.00 0.00 0.00 87 1020.2
20260902130100 25 0 0.0 3.2 0.00 0.00 0.00 89 1020.2
20260902124554 24 0 0.0 1.6 0.00 0.00 0.00 93 1020.2
20260902123058 22 0 0.0 0.0 0.00 0.00 0.00 97 1020.3
20260902121559 21 0 0.0 0.0 0.00 0.00 0.00 98 1020.1
20260902120054 21 0 0.0 0.0 0.00 0.00 0.00 97 1019.9
20260902114554 20 0 0.0 0.0 0.00 0.00 0.00 97 1019.7
20260902113105 20 0 0.0 0.0 0.00 0.00 0.00 97 1019.4
20260902111600 20 0 0.0 0.0 0.00 0.00 0.00 97 1019.3
20260902110052 20 0 0.0 0.0 0.00 0.00 0.00 97 1019.0
20260902104603 20 0 0.0 0.0 0.00 0.00 0.00 97 1019.0
20260902103105 20 0 0.0 0.0 0.00 0.00 0.00 97 1018.8